Regional Weather Roundup
Issued by NWS

Home | Current Version | Previous Version | Graphics & Text | Print | Product List | Glossary On
Versions: 1 2 3 4 5 6 7 8 9 10 11 12 13 14 15 16 17 18 19 20 21 22 23 24 25 26 27 28 29 30 31 32 33 34 35 36 37 38 39 40 41 42 43 44 45 46 47 48 49 50
000
ASUS43 KBIS 190120
RWRND

NORTH DAKOTA REGIONAL WEATHER ROUNDUP
NATIONAL WEATHER SERVICE BISMARCK ND
800 PM CDT FRI APR 18 2014

NOTE: "FAIR" INDICATES FEW OR NO CLOUDS BELOW 12,000 FEET WITH NO
SIGNIFICANT WEATHER AND/OR OBSTRUCTIONS TO VISIBILITY.


NDZ001>003-009>011-017-190200-
NORTHWEST NORTH DAKOTA

CITY           SKY/WX    TMP DP  RH WIND       PRES   REMARKS
WILLISTON      RAIN      48  44  86 W7        29.68R FOG
MINOT          CLOUDY    47  33  58 E20G31    29.73R
MINOT AFB      CLOUDY    47  35  61 SE20G28   29.73S
$$

NDZ018>021-031>035-040>046-190200-
SOUTHWEST NORTH DAKOTA

CITY           SKY/WX    TMP DP  RH WIND       PRES   REMARKS
BISMARCK       CLOUDY    53  38  56 E17G28    29.65F
DICKINSON      CLOUDY    58  38  47 SE7       29.60S
GARRISON         N/A     48  35  60 E17G24    29.69R
HETTINGER ARPT CLOUDY    62  41  46 E6        29.59F
$$

NDZ004>008-012>016-024-026-027-054-190200-
NORTHEAST NORTH DAKOTA

CITY           SKY/WX    TMP DP  RH WIND       PRES   REMARKS
GRAND FORKS    CLOUDY    47  28  47 SE24G39   29.98F
GRND FRKS AFB  CLOUDY    46  29  51 SE23G32   29.97F
DEVILS LAKE    CLOUDY    43  28  56 SE24G33   29.84F
$$

NDZ022-023-025-028>030-036>039-047>053-190200-
SOUTHEAST NORTH DAKOTA

CITY           SKY/WX    TMP DP  RH WIND       PRES   REMARKS
FARGO          CLOUDY    45  28  51 E24G36    29.97F
JAMESTOWN      CLOUDY    46  36  68 SE31G48   29.80F
$$




USA.gov is the U.S. government's official web portal to all federal, state and local government web resources and services.